When you browse on this site, cookies collect data to enhance your experience and personalize the content and advertising you see.
Visit our Privacy Policy to learn more. By continuing to use the site, you agree to this use of cookies and data.
  • In Hungary
  • List of Countries
  • For 7 days
  • Water Temperature
  • Weather Map
  • News
  • Weather Widgets
  • user-avatar
    Login

    Hourly Weather Siodmak

    Today, 10 December, Tuesday

    Time Temperature Precipitation Wind Pressure Humidity
    00:00 +3°C° 0 mm 3 mps 740 mmHg 91%
    01:00 +1°C° 0 mm 4 mps 740 mmHg 91%
    02:00 +1°C° 0 mm 4 mps 741 mmHg 91%
    03:00 +1°C° 0 mm 4 mps 741 mmHg 91%
    04:00 +1°C° 0 mm 4 mps 741 mmHg 91%
    05:00 +1°C° 0 mm 4 mps 741 mmHg 89%
    06:00 +3°C° 0 mm 4 mps 742 mmHg 87%
    07:00 +2°C° 0 mm 5 mps 743 mmHg 84%
    08:00 +1°C° 0 mm 5 mps 743 mmHg 81%
    09:00 +1°C° 0 mm 5 mps 744 mmHg 77%
    10:00 +1°C° 0 mm 6 mps 744 mmHg 74%
    11:00 +1°C° 0.1 mm 6 mps 745 mmHg 79%
    12:00 -1°C° 0.1 mm 6 mps 745 mmHg 84%
    13:00 -1°C° 0.1 mm 6 mps 746 mmHg 89%
    14:00 -1°C° 0.4 mm 6 mps 747 mmHg 89%
    15:00 -1°C° 0.4 mm 6 mps 747 mmHg 90%
    16:00 -1°C° 0.4 mm 6 mps 748 mmHg 90%
    17:00 -1°C° 0.1 mm 6 mps 749 mmHg 87%
    18:00 0°C° 0.1 mm 5 mps 750 mmHg 83%
    19:00 0°C° 0.1 mm 5 mps 751 mmHg 80%
    20:00 -1°C° 0 mm 4 mps 751 mmHg 82%
    21:00 -1°C° 0 mm 4 mps 751 mmHg 84%
    22:00 -1°C° 0 mm 3 mps 751 mmHg 87%
    23:00 -1°C° 0 mm 3 mps 751 mmHg 87%

    Tomorrow, 11 December, Wednesday

    Time Temperature Precipitation Wind Pressure Humidity
    00:00 -2°C° 0 mm 2 mps 752 mmHg 87%
    01:00 -2°C° 0 mm 2 mps 752 mmHg 87%
    02:00 -2°C° 0 mm 2 mps 752 mmHg 86%
    03:00 -2°C° 0 mm 2 mps 751 mmHg 85%
    04:00 0°C° 0 mm 1 mps 751 mmHg 83%
    05:00 0°C° 0 mm 1 mps 751 mmHg 82%
    06:00 0°C° 0 mm 1 mps 751 mmHg 81%
    07:00 0°C° 0 mm 1 mps 751 mmHg 80%
    08:00 0°C° 0 mm 1 mps 751 mmHg 78%
    09:00 -1°C° 0 mm 2 mps 750 mmHg 75%
    10:00 -1°C° 0 mm 3 mps 750 mmHg 72%
    11:00 0°C° 0 mm 3 mps 750 mmHg 71%
    12:00 0°C° 0 mm 3 mps 749 mmHg 69%
    13:00 0°C° 0 mm 3 mps 749 mmHg 67%
    14:00 0°C° 0 mm 3 mps 748 mmHg 70%
    15:00 -1°C° 0 mm 3 mps 748 mmHg 74%
    16:00 -2°C° 0 mm 3 mps 747 mmHg 77%
    17:00 -2°C° 0 mm 3 mps 747 mmHg 77%
    18:00 -3°C° 0 mm 4 mps 747 mmHg 77%
    19:00 -3°C° 0 mm 4 mps 747 mmHg 77%
    20:00 -3°C° 0 mm 4 mps 747 mmHg 79%
    21:00 -3°C° 0 mm 4 mps 746 mmHg 81%
    22:00 -4°C° 0 mm 5 mps 746 mmHg 83%
    23:00 -3°C° 0 mm 4 mps 746 mmHg 84%

    Day after tomorrow, 12 December, Thursday

    Time Temperature Precipitation Wind Pressure Humidity
    00:00 -4°C° 0 mm 4 mps 745 mmHg 84%
    01:00 -4°C° 0 mm 4 mps 745 mmHg 85%
    02:00 -3°C° 0 mm 4 mps 744 mmHg 84%
    03:00 -3°C° 0 mm 4 mps 744 mmHg 84%
    04:00 -3°C° 0 mm 4 mps 743 mmHg 83%
    05:00 -3°C° 0 mm 4 mps 743 mmHg 84%
    06:00 -3°C° 0 mm 4 mps 743 mmHg 85%
    07:00 -2°C° 0 mm 4 mps 743 mmHg 87%
    08:00 -2°C° 0 mm 4 mps 742 mmHg 83%
    09:00 -2°C° 0 mm 4 mps 742 mmHg 80%
    10:00 -2°C° 0 mm 4 mps 742 mmHg 77%
    11:00 -2°C° 0 mm 4 mps 742 mmHg 75%
    12:00 -2°C° 0 mm 4 mps 742 mmHg 72%
    13:00 -1°C° 0 mm 4 mps 741 mmHg 70%
    14:00 -2°C° 0 mm 4 mps 741 mmHg 69%
    15:00 -3°C° 0 mm 4 mps 741 mmHg 69%
    16:00 -2°C° 0 mm 3 mps 741 mmHg 68%
    17:00 -2°C° 0 mm 3 mps 741 mmHg 66%
    18:00 -2°C° 0 mm 3 mps 741 mmHg 63%
    19:00 -2°C° 0 mm 3 mps 741 mmHg 61%
    20:00 -2°C° 0 mm 3 mps 740 mmHg 62%
    21:00 -4°C° 0 mm 3 mps 740 mmHg 63%
    22:00 -4°C° 0 mm 3 mps 740 mmHg 64%
    23:00 -4°C° 0 mm 3 mps 739 mmHg 64%

    13 December, Friday

    Time Temperature Precipitation Wind Pressure Humidity
    00:00 -2°C° 0 mm 3 mps 739 mmHg 64%
    01:00 -2°C° 0 mm 3 mps 738 mmHg 65%
    02:00 -2°C° 0 mm 3 mps 738 mmHg 73%
    03:00 -2°C° 0 mm 3 mps 737 mmHg 82%
    04:00 -2°C° 0 mm 3 mps 736 mmHg 90%
    05:00 -2°C° 0.3 mm 4 mps 736 mmHg 92%
    06:00 -1°C° 0.3 mm 4 mps 735 mmHg 94%
    07:00 0°C° 0.3 mm 4 mps 734 mmHg 96%
    08:00 0°C° 0.1 mm 5 mps 734 mmHg 94%
    09:00 0°C° 0.1 mm 5 mps 733 mmHg 93%
    10:00 +1°C° 0.1 mm 6 mps 733 mmHg 91%
    11:00 +1°C° 0 mm 6 mps 732 mmHg 90%
    12:00 +1°C° 0 mm 6 mps 732 mmHg 88%
    13:00 +1°C° 0 mm 5 mps 731 mmHg 86%
    14:00 +1°C° 0 mm 5 mps 731 mmHg 86%
    15:00 +1°C° 0 mm 5 mps 731 mmHg 86%
    16:00 +1°C° 0 mm 5 mps 731 mmHg 85%
    17:00 +1°C° 0 mm 5 mps 731 mmHg 85%
    18:00 +1°C° 0 mm 6 mps 730 mmHg 84%
    19:00 -1°C° 0 mm 6 mps 730 mmHg 84%
    20:00 0°C° 0 mm 5 mps 730 mmHg 85%
    21:00 -1°C° 0 mm 5 mps 730 mmHg 86%
    22:00 -2°C° 0 mm 5 mps 730 mmHg 87%
    23:00 -1°C° 0 mm 5 mps 730 mmHg 85%

    14 December, Saturday

    Time Temperature Precipitation Wind Pressure Humidity
    00:00 -1°C° 0 mm 5 mps 730 mmHg 84%
    01:00 -1°C° 0 mm 5 mps 730 mmHg 83%
    02:00 -1°C° 0 mm 5 mps 730 mmHg 84%
    03:00 -1°C° 0 mm 5 mps 730 mmHg 85%
    04:00 -1°C° 0 mm 5 mps 730 mmHg 86%
    05:00 -1°C° 0 mm 5 mps 730 mmHg 85%
    06:00 -1°C° 0 mm 5 mps 730 mmHg 84%
    07:00 -1°C° 0 mm 5 mps 731 mmHg 84%
    08:00 -1°C° 0 mm 5 mps 731 mmHg 82%
    09:00 -1°C° 0 mm 6 mps 731 mmHg 80%
    10:00 -1°C° 0 mm 6 mps 731 mmHg 79%
    11:00 -1°C° 0 mm 6 mps 731 mmHg 78%
    12:00 +1°C° 0 mm 6 mps 731 mmHg 77%
    13:00 +1°C° 0 mm 6 mps 731 mmHg 76%
    14:00 +1°C° 0 mm 5 mps 731 mmHg 79%
    15:00 0°C° 0 mm 5 mps 731 mmHg 82%
    16:00 0°C° 0 mm 4 mps 731 mmHg 85%
    17:00 -1°C° 0 mm 5 mps 731 mmHg 86%
    18:00 -1°C° 0 mm 5 mps 731 mmHg 87%
    19:00 -1°C° 0 mm 5 mps 730 mmHg 88%
    20:00 -1°C° 0.2 mm 5 mps 730 mmHg 91%
    21:00 -1°C° 0.2 mm 5 mps 730 mmHg 94%
    22:00 -1°C° 0.2 mm 4 mps 730 mmHg 97%
    23:00 0°C° 0.7 mm 5 mps 731 mmHg 96%

    15 December, Sunday

    Time Temperature Precipitation Wind Pressure Humidity
    00:00 -1°C° 0.7 mm 6 mps 731 mmHg 95%
    01:00 -1°C° 0.7 mm 6 mps 731 mmHg 94%
    02:00 -1°C° 0 mm 7 mps 732 mmHg 89%
    03:00 -1°C° 0 mm 7 mps 733 mmHg 85%
    04:00 0°C° 0 mm 7 mps 733 mmHg 80%
    05:00 0°C° 0 mm 7 mps 734 mmHg 79%
    06:00 -1°C° 0 mm 7 mps 735 mmHg 79%
    07:00 -1°C° 0 mm 7 mps 736 mmHg 79%
    08:00 0°C° 0.1 mm 7 mps 736 mmHg 77%
    09:00 0°C° 0.1 mm 7 mps 737 mmHg 75%
    10:00 0°C° 0.1 mm 7 mps 738 mmHg 73%
    11:00 0°C° 0 mm 7 mps 739 mmHg 72%
    12:00 0°C° 0 mm 7 mps 740 mmHg 70%
    13:00 0°C° 0 mm 7 mps 740 mmHg 68%
    14:00 +1°C° 0 mm 6 mps 741 mmHg 70%
    15:00 0°C° 0 mm 5 mps 742 mmHg 71%
    16:00 -1°C° 0 mm 5 mps 742 mmHg 73%
    17:00 0°C° 0 mm 5 mps 742 mmHg 71%
    18:00 0°C° 0 mm 5 mps 742 mmHg 70%
    19:00 0°C° 0 mm 5 mps 742 mmHg 68%
    20:00 +1°C° 0.1 mm 6 mps 742 mmHg 73%
    21:00 +1°C° 0.1 mm 6 mps 742 mmHg 78%
    22:00 +2°C° 0.1 mm 6 mps 742 mmHg 83%
    23:00 +2°C° 0 mm 6 mps 742 mmHg 85%
    Show more